{"data":{"norad_id":68522,"intl_designator":"2026-068Q","name":"STARLINK-36322","alt_names":[],"object_type":"PAYLOAD","status":"ACTIVE","operator":null,"country":"US","launch_date":"2026-03-30","launch_site_code":"AFETR","launch_vehicle":null,"mission":null,"orbit_class":"UNKNOWN","rcs_meters":null,"size_class":null,"mass_kg":null,"dimensions":null,"purposes":["comms"],"wikipedia_slug":null,"has_3d_model":false,"image_url":null,"decayed_at":null,"tle_current":{"epoch":"2026-05-25T02:53:27.869280Z","epoch_age_seconds":67803,"freshness":"FRESH","line1":"1 68522U 26068Q   26145.12046145  .00016082  00000+0  48606-3 0  9999","line2":"2 68522  53.1589 133.0562 0001259  63.3921 296.7210 15.34401918  8660","mean_motion":15.34401918,"eccentricity":0.0001259,"inclination_deg":53.1589,"raan_deg":133.0562,"arg_perigee_deg":63.3921,"mean_anomaly_deg":296.721,"bstar":0.00048606,"rev_number":866,"period_min":93.847640771784,"perigee_km":461.83627844432,"apogee_km":463.55880058137,"semimajor_km":6840.8345395128,"source":"CELESTRAK","updated_at":"2026-05-25T13:38:21.955388Z"}}}